KB5SQG Weather Reports


Display with metric or nautical units.
time (UTC)temp
F
wind
direction
speed
MPH
gust
MPH
rain 1hr
in
rain 24hr
in
rain mn
in
humidity
%
barometer
mb
20260509223816 98 0.0 0.0 0.00 0.00 0.00 35 1008.3
20260509222816 97 0.0 0.0 0.00 0.00 0.00 38 1008.3
20260509221837 97 0.0 0.0 0.00 0.00 0.00 34 1008.3
20260509220817 98 0.0 0.0 0.00 0.00 0.00 35 1008.3
20260509215817 97 0.0 0.0 0.00 0.00 0.00 34 1008.4
20260509214817 97 0.0 0.0 0.00 0.00 0.00 36 1008.4
20260509213817 99 0.0 0.0 0.00 0.00 0.00 33 1008.6
20260509212817 99 0.0 0.0 0.00 0.00 0.00 34 1008.6
20260509211817 98 0.0 0.0 0.00 0.00 0.00 36 1008.7
20260509210818 97 0.0 0.0 0.00 0.00 0.00 37 1008.9
20260509205818 97 0.0 0.0 0.00 0.00 0.00 36 1009.1
20260509204817 97 0.0 0.0 0.00 0.00 0.00 37 1009.2
20260509203817 97 0.0 0.0 0.00 0.00 0.00 37 1009.3
20260509202817 97 0.0 0.0 0.00 0.00 0.00 38 1009.5
20260509201817 96 0.0 1.0 0.00 0.00 0.00 36 1009.6
20260509200817 96 0.0 0.0 0.00 0.00 0.00 40 1009.6
20260509195817 95 0.0 0.0 0.00 0.00 0.00 39 1009.8
20260509194817 95 0.0 0.0 0.00 0.00 0.00 40 1010.0
20260509193817 94 0.0 0.0 0.00 0.00 0.00 41 1010.1
20260509192817 94 135 1.0 2.0 0.00 0.04 0.00 41 1010.2
20260509191816 93 45 1.0 2.0 0.00 0.05 0.00 46 1010.3
20260509190816 91 0.0 1.0 0.00 0.05 0.00 46 1010.4
20260509185816 92 0.0 1.0 0.00 0.05 0.00 45 1010.6
20260509184836 90 293 1.0 2.0 0.00 0.05 0.00 47 1010.6
20260509183817 89 0.0 0.0 0.00 0.05 0.00 48 1010.8
20260509182837 88 270 1.0 1.0 0.00 0.05 0.00 47 1011.0
20260509181817 90 45 1.0 3.0 0.00 0.05 0.00 46 1011.1
20260509180817 88 0.0 1.0 0.00 0.05 0.00 50 1011.2
20260509175817 87 23 1.0 2.0 0.00 0.05 0.00 50 1011.4
20260509174817 86 23 1.0 2.0 0.00 0.05 0.00 52 1011.5
20260509173816 88 270 3.0 4.0 0.00 0.05 0.00 47 1011.6
20260509172816 87 0.0 1.0 0.00 0.05 0.00 53 1011.8
20260509171816 88 90 1.0 2.0 0.00 0.05 0.00 52 1011.9
20260509170817 86 113 1.0 3.0 0.00 0.05 0.00 53 1012.1
20260509165837 84 0.0 1.0 0.00 0.05 0.00 57 1012.0
20260509164937 83 0.0 1.0 0.00 0.05 0.00 57 1012.1
20260509163817 83 338 1.0 2.0 0.00 0.05 0.00 58 1012.3
20260509162836 82 0.0 1.0 0.00 0.05 0.00 57 1012.2
20260509161816 80 0.0 1.0 0.00 0.05 0.00 60 1012.4
20260509160816 80 0.0 0.0 0.00 0.05 0.00 61 1012.4
20260509155817 80 293 1.0 2.0 0.00 0.05 0.00 63 1012.6
20260509154837 79 293 1.0 2.0 0.00 0.05 0.00 67 1012.6
20260509153816 76 0.0 1.0 0.00 0.05 0.00 72 1012.5
20260509152836 75 248 1.0 1.0 0.00 0.05 0.00 72 1012.5
20260509151817 75 0.0 0.0 0.00 0.05 0.00 72 1012.6
20260509150837 75 0.0 1.0 0.00 0.05 0.00 73 1012.8
20260509145817 75 248 2.0 2.0 0.00 0.05 0.00 74 1012.9
20260509144852 74 248 2.0 4.0 0.00 0.05 0.00 74 1012.9
20260509143817 74 270 2.0 5.0 0.00 0.05 0.00 74 1013.0
20260509142817 73 0.0 0.0 0.00 0.05 0.00 76 1012.9
20260509141817 73 0.0 1.0 0.00 0.05 0.00 76 1013.0
20260509140817 73 0.0 0.0 0.00 0.05 0.00 76 1013.0
20260509135816 71 0.0 0.0 0.00 0.05 0.00 78 1013.1
20260509134817 71 248 1.0 2.0 0.00 0.05 0.00 77 1013.3
20260509133837 71 0.0 0.0 0.00 0.05 0.00 80 1013.2
20260509132817 70 203 1.0 2.0 0.00 0.05 0.00 81 1012.8
20260509131817 68 0.0 0.0 0.00 0.05 0.00 82 1012.8
20260509130817 67 0.0 1.0 0.00 0.05 0.00 87 1012.6
20260509125816 65 0.0 0.0 0.00 0.05 0.00 91 1012.6
20260509124817 64 0.0 0.0 0.00 0.05 0.00 91 1012.5
20260509123817 64 0.0 0.0 0.00 0.05 0.00 91 1012.4
20260509122817 63 0.0 0.0 0.00 0.05 0.00 91 1012.3
20260509121817 63 0.0 0.0 0.00 0.05 0.00 91 1012.3
20260509120817 63 0.0 0.0 0.00 0.05 0.00 90 1012.3
20260509115837 63 0.0 0.0 0.00 0.05 0.00 90 1012.3
20260509114817 64 0.0 0.0 0.00 0.05 0.00 89 1012.3
20260509113817 64 0.0 0.0 0.00 0.05 0.00 89 1012.1
20260509112817 64 0.0 0.0 0.00 0.05 0.00 88 1012.2
20260509111817 65 0.0 1.0 0.00 0.05 0.00 88 1012.0
20260509110817 65 0.0 1.0 0.00 0.05 0.00 88 1012.0
20260509105817 65 0.0 1.0 0.00 0.05 0.00 88 1011.7
20260509104817 66 0.0 0.0 0.00 0.05 0.00 88 1011.6
20260509103817 66 0.0 1.0 0.00 0.05 0.00 87 1011.0
20260509102817 66 0.0 0.0 0.00 0.05 0.00 86 1010.8
20260509101817 67 0.0 0.0 0.00 0.05 0.00 86 1010.9
20260509100817 68 0.0 1.0 0.00 0.05 0.00 86 1010.8
20260509095817 69 0.0 2.0 0.00 0.05 0.00 86 1010.7
20260509094817 70 0.0 2.0 0.00 0.05 0.00 85 1010.3
20260509093817 70 315 2.0 7.0 0.00 0.05 0.00 86 1009.2
20260509092817 70 293 3.0 6.0 0.00 0.05 0.00 87 1008.8
20260509091817 70 293 2.0 7.0 0.00 0.05 0.00 89 1008.3
20260509090817 69 158 1.0 2.0 0.00 0.05 0.00 89 1009.1
20260509085817 69 158 2.0 8.0 0.00 0.05 0.00 90 1008.8
20260509084817 68 0.0 0.0 0.00 0.05 0.00 87 1009.4
20260509083817 68 0.0 0.0 0.00 0.05 0.00 86 1010.3
20260509082817 68 0.0 1.0 0.00 0.05 0.00 86 1010.3
20260509081817 68 23 1.0 2.0 0.00 0.05 0.00 86 1010.6
20260509080817 68 315 1.0 2.0 0.00 0.05 0.00 86 1010.6
20260509075817 68 338 1.0 2.0 0.00 0.05 0.00 87 1010.7
20260509074817 68 0.0 0.0 0.00 0.05 0.00 86 1011.1
20260509073817 69 0.0 1.0 0.00 0.05 0.00 84 1011.4
20260509072817 68 158 1.0 2.0 0.00 0.05 0.00 83 1011.7
20260509071817 68 0.0 0.0 0.00 0.05 0.00 83 1012.5
20260509070817 69 0.0 0.0 0.00 0.05 0.00 83 1013.1
20260509065817 69 0.0 1.0 0.00 0.05 0.00 85 1013.6
20260509064817 68 68 1.0 3.0 0.00 0.05 0.00 91 1014.2
20260509063817 68 0.0 2.0 0.00 0.05 0.00 93 1014.1
20260509062837 67 0.0 0.0 0.00 0.05 0.00 94 1013.9
20260509061817 67 0.0 0.0 0.00 0.05 0.00 94 1013.3
20260509060817 67 0.0 1.0 0.00 0.05 0.00 94 1013.6
20260509055817 67 0.0 0.0 0.00 0.05 0.00 93 1012.8
20260509054838 66 68 1.0 2.0 0.00 0.05 0.00 93 1012.6
20260509053817 67 0.0 0.0 0.00 0.05 0.00 92 1012.0
20260509052858 67 0.0 0.0 0.00 0.05 0.00 92 1012.1
20260509051817 67 0.0 0.0 0.00 0.05 0.00 91 1012.2
20260509050818 68 0.0 0.0 0.00 0.05 0.00 90 1012.2
20260509045816 68 0.0 0.0 0.00 0.05 0.05 90 1012.1
20260509044817 69 0.0 0.0 0.00 0.05 0.05 90 1011.9
20260509043817 69 0.0 0.0 0.00 0.05 0.05 89 1011.4
20260509042816 70 0.0 0.0 0.00 0.05 0.05 88 1011.3
20260509041836 70 0.0 0.0 0.00 0.05 0.05 88 1011.4
20260509040837 70 0.0 0.0 0.00 0.05 0.05 88 1011.2
20260509035817 70 0.0 1.0 0.00 0.05 0.05 88 1010.9
20260509034816 70 0.0 1.0 0.00 0.05 0.05 88 1010.8
20260509033816 70 0.0 0.0 0.00 0.05 0.05 88 1010.9
20260509032816 70 0.0 0.0 0.00 0.05 0.05 87 1010.7
20260509031817 70 0.0 1.0 0.00 0.05 0.05 87 1010.8
20260509030857 71 0.0 0.0 0.00 0.05 0.05 86 1010.6
20260509025817 71 0.0 0.0 0.00 0.05 0.05 85 1010.5
20260509024817 72 0.0 0.0 0.00 0.05 0.05 84 1010.4
20260509023816 72 0.0 0.0 0.00 0.05 0.05 84 1010.3
20260509022816 72 0.0 1.0 0.00 0.05 0.05 84 1009.9
20260509021816 72 0.0 0.0 0.00 0.05 0.05 84 1009.9
20260509020817 73 0.0 0.0 0.00 0.05 0.05 83 1009.9
20260509015817 73 0.0 0.0 0.00 0.05 0.05 83 1009.9
20260509014817 72 0.0 0.0 0.00 0.05 0.05 83 1009.9
20260509013816 72 0.0 0.0 0.00 0.05 0.05 83 1009.9
20260509012817 72 0.0 0.0 0.00 0.05 0.05 82 1009.9
20260509011816 73 0.0 0.0 0.00 0.05 0.05 81 1009.8
20260509010816 73 0.0 0.0 0.00 0.05 0.05 80 1009.6
20260509005817 74 0.0 0.0 0.00 0.05 0.05 79 1009.4
20260509004817 74 0.0 0.0 0.00 0.05 0.05 78 1009.2
20260509003817 75 0.0 0.0 0.00 0.05 0.05 79 1009.1
20260509002817 75 0.0 0.0 0.00 0.05 0.05 77 1009.3
20260509001817 75 0.0 0.0 0.00 0.05 0.05 77 1009.3
20260509000837 75 0.0 0.0 0.00 0.05 0.05 76 1009.3
20260508235817 76 0.0 0.0 0.00 0.05 0.05 76 1009.4
20260508234816 76 0.0 0.0 0.00 0.05 0.05 75 1009.5
20260508233817 76 0.0 0.0 0.00 0.05 0.05 75 1009.5
20260508232817 76 0.0 0.0 0.00 0.05 0.05 74 1009.5
20260508231816 77 0.0 0.0 0.00 0.05 0.05 73 1009.6
20260508230817 77 0.0 0.0 0.00 0.05 0.05 73 1009.5
20260508225817 77 0.0 1.0 0.00 0.05 0.05 72 1009.5
20260508224817 78 0.0 1.0 0.00 0.05 0.05 71 1009.4